Time,TemperatureF,DewpointF,PressureIn,WindDirection,WindDirectionDegrees,WindSpeedMPH,WindSpeedGustMPH,Humidity,HourlyPrecipIn,Conditions,Clouds,dailyrainin,SoftwareType,DateUTC
2013-03-02 00:01:00,32.0,31.0,30.13,WNW,299,2.0,3.0,96,0.00,,,0.12,,2013-03-02 06:01:00,
2013-03-02 00:11:00,32.0,31.0,30.13,WNW,299,2.0,3.0,96,0.00,,,0.12,,2013-03-02 06:11:00,
2013-03-02 00:21:00,32.0,31.0,30.13,WNW,294,3.0,7.0,96,0.00,,,0.12,,2013-03-02 06:21:00,
2013-03-02 00:31:00,32.0,31.0,30.13,West,278,3.0,5.0,96,0.00,,,0.12,,2013-03-02 06:31:00,
2013-03-02 00:42:00,32.0,31.0,30.13,West,278,3.0,5.0,96,0.00,,,0.12,,2013-03-02 06:42:00,
2013-03-02 00:52:00,32.0,31.0,30.13,WNW,292,3.0,5.0,96,0.00,,,0.12,,2013-03-02 06:52:00,
2013-03-02 01:01:00,32.0,31.0,30.13,West,264,2.0,5.0,96,0.00,,,0.12,,2013-03-02 07:01:00,
2013-03-02 01:11:00,32.0,31.0,30.13,West,264,2.0,5.0,96,0.00,,,0.12,,2013-03-02 07:11:00,
2013-03-02 01:21:00,32.0,31.0,30.13,West,280,3.0,8.0,96,0.00,,,0.12,,2013-03-02 07:21:00,
2013-03-02 01:32:00,31.0,30.0,30.13,WSW,254,2.0,5.0,97,0.00,,,0.12,,2013-03-02 07:32:00,
2013-03-02 01:42:00,31.0,30.0,30.13,WSW,254,2.0,5.0,97,0.00,,,0.12,,2013-03-02 07:42:00,
2013-03-02 01:52:00,31.0,30.0,30.13,WNW,285,2.0,5.0,96,0.00,,,0.12,,2013-03-02 07:52:00,
2013-03-02 02:01:00,31.0,30.0,30.12,West,260,4.0,7.0,96,0.00,,,0.12,,2013-03-02 08:01:00,
2013-03-02 02:11:00,31.0,30.0,30.12,West,260,4.0,7.0,96,0.00,,,0.12,,2013-03-02 08:11:00,
2013-03-02 02:21:00,31.0,30.0,30.12,West,267,3.0,6.0,96,0.00,,,0.12,,2013-03-02 08:21:00,
2013-03-02 02:32:00,31.0,30.0,30.12,West,260,4.0,6.0,96,0.00,,,0.12,,2013-03-02 08:32:00,
2013-03-02 02:42:00,31.0,30.0,30.12,West,260,4.0,6.0,96,0.00,,,0.12,,2013-03-02 08:42:00,
2013-03-02 02:52:00,31.0,30.0,30.11,NW,309,4.0,10.0,96,0.00,,,0.12,,2013-03-02 08:52:00,
2013-03-02 03:01:00,31.0,30.0,30.11,WSW,247,5.0,7.0,96,0.00,,,0.12,,2013-03-02 09:01:00,
2013-03-02 03:11:00,31.0,30.0,30.11,WSW,247,5.0,7.0,96,0.00,,,0.12,,2013-03-02 09:11:00,
2013-03-02 03:21:00,31.0,30.0,30.10,West,260,3.0,8.0,96,0.00,,,0.12,,2013-03-02 09:21:00,
2013-03-02 03:32:00,31.0,30.0,30.11,West,263,3.0,8.0,96,0.00,,,0.12,,2013-03-02 09:32:00,
2013-03-02 03:42:00,31.0,30.0,30.11,West,263,3.0,8.0,96,0.00,,,0.12,,2013-03-02 09:42:00,
2013-03-02 03:52:00,31.0,30.0,30.10,WSW,257,5.0,8.0,95,0.00,,,0.12,,2013-03-02 09:52:00,
2013-03-02 04:01:00,31.0,30.0,30.10,West,281,6.0,10.0,95,0.00,,,0.12,,2013-03-02 10:01:00,
2013-03-02 04:15:00,31.0,30.0,30.10,West,281,6.0,10.0,95,0.00,,,0.12,,2013-03-02 10:15:00,
2013-03-02 04:22:00,31.0,30.0,30.11,West,274,2.0,7.0,95,0.00,,,0.12,,2013-03-02 10:22:00,
2013-03-02 04:31:00,31.0,30.0,30.11,West,263,2.0,7.0,95,0.00,,,0.12,,2013-03-02 10:31:00,
2013-03-02 04:42:00,31.0,30.0,30.11,West,263,2.0,7.0,95,0.00,,,0.12,,2013-03-02 10:42:00,
2013-03-02 04:52:00,31.0,29.0,30.11,West,281,3.0,8.0,94,0.00,,,0.12,,2013-03-02 10:52:00,
2013-03-02 05:01:00,31.0,29.0,30.11,WNW,287,5.0,14.0,94,0.00,,,0.12,,2013-03-02 11:01:00,
2013-03-02 05:11:00,31.0,29.0,30.11,WNW,287,5.0,14.0,94,0.00,,,0.12,,2013-03-02 11:11:00,
2013-03-02 05:21:00,31.0,29.0,30.11,West,277,4.0,7.0,93,0.00,,,0.12,,2013-03-02 11:21:00,
2013-03-02 05:32:00,31.0,29.0,30.11,WSW,253,4.0,8.0,93,0.00,,,0.12,,2013-03-02 11:32:00,
2013-03-02 05:42:00,31.0,29.0,30.11,WSW,253,4.0,8.0,93,0.00,,,0.12,,2013-03-02 11:42:00,
2013-03-02 05:52:00,31.0,29.0,30.11,West,260,4.0,10.0,93,0.00,,,0.12,,2013-03-02 11:52:00,
2013-03-02 06:02:00,31.0,29.0,30.12,West,268,4.0,10.0,93,0.00,,,0.12,,2013-03-02 12:02:00,
2013-03-02 06:11:00,31.0,29.0,30.12,West,268,4.0,10.0,93,0.00,,,0.12,,2013-03-02 12:11:00,
2013-03-02 06:21:00,31.0,29.0,30.12,WNW,298,5.0,8.0,93,0.00,,,0.12,,2013-03-02 12:21:00,
2013-03-02 06:33:00,31.0,29.0,30.12,West,270,6.0,8.0,94,0.00,,,0.12,,2013-03-02 12:33:00,
2013-03-02 06:43:00,31.0,29.0,30.12,West,270,6.0,8.0,94,0.00,,,0.12,,2013-03-02 12:43:00,
2013-03-02 06:53:00,31.0,29.0,30.13,WNW,302,4.0,8.0,94,0.00,,,0.12,,2013-03-02 12:53:00,
2013-03-02 07:01:00,31.0,29.0,30.14,West,260,7.0,10.0,94,0.00,,,0.12,,2013-03-02 13:01:00,
2013-03-02 07:11:00,31.0,29.0,30.14,West,260,7.0,10.0,94,0.00,,,0.12,,2013-03-02 13:11:00,
2013-03-02 07:22:00,31.0,29.0,30.14,West,268,6.0,10.0,93,0.00,,,0.12,,2013-03-02 13:22:00,
2013-03-02 07:32:00,31.0,29.0,30.14,WNW,294,3.0,8.0,93,0.00,,,0.12,,2013-03-02 13:32:00,
2013-03-02 07:42:00,31.0,29.0,30.14,WNW,294,3.0,8.0,93,0.00,,,0.12,,2013-03-02 13:42:00,
2013-03-02 07:52:00,31.0,29.0,30.14,WNW,299,5.0,11.0,93,0.00,,,0.12,,2013-03-02 13:52:00,
2013-03-02 08:01:00,31.0,29.0,30.15,WNW,282,3.0,10.0,92,0.00,,,0.12,,2013-03-02 14:01:00,
2013-03-02 08:11:00,31.0,29.0,30.15,WNW,282,3.0,10.0,92,0.00,,,0.12,,2013-03-02 14:11:00,
2013-03-02 08:21:00,31.0,29.0,30.16,NW,311,2.0,11.0,92,0.00,,,0.12,,2013-03-02 14:21:00,
2013-03-02 08:32:00,31.0,29.0,30.16,West,271,6.0,11.0,92,0.00,,,0.12,,2013-03-02 14:32:00,
2013-03-02 08:42:00,31.0,29.0,30.16,West,271,6.0,11.0,92,0.00,,,0.12,,2013-03-02 14:42:00,
2013-03-02 08:52:00,31.0,29.0,30.16,NW,313,5.0,12.0,92,0.00,,,0.12,,2013-03-02 14:52:00,
2013-03-02 09:02:00,31.0,29.0,30.16,NW,313,5.0,12.0,92,0.00,,,0.12,,2013-03-02 15:02:00,
2013-03-02 09:11:00,31.0,29.0,30.16,NW,313,5.0,12.0,92,0.00,,,0.12,,2013-03-02 15:11:00,
2013-03-02 09:21:00,31.0,28.0,30.17,WNW,291,5.0,-999.0,90,-99.99,,,-99.99,,2013-03-02 15:21:00,
2013-03-02 09:32:00,31.0,29.0,30.17,NW,315,2.0,17.0,91,-99.99,,,-99.99,,2013-03-02 15:32:00,
2013-03-02 09:42:00,31.0,29.0,30.17,NW,315,2.0,17.0,91,-99.99,,,-99.99,,2013-03-02 15:42:00,
2013-03-02 09:52:00,31.0,29.0,30.18,WNW,298,3.0,16.0,91,-99.99,,,-99.99,,2013-03-02 15:52:00,
2013-03-02 10:01:00,31.0,29.0,30.18,NW,322,7.0,14.0,91,-99.99,,,-99.99,,2013-03-02 16:01:00,
2013-03-02 10:11:00,31.0,29.0,30.18,NW,322,7.0,14.0,91,-99.99,,,-99.99,,2013-03-02 16:11:00,
2013-03-02 10:21:00,31.0,29.0,30.18,NNW,328,4.0,10.0,91,-99.99,,,-99.99,,2013-03-02 16:21:00,
2013-03-02 10:31:00,31.0,28.0,30.18,West,278,9.0,13.0,90,0.00,,,-99.99,,2013-03-02 16:31:00,
2013-03-02 10:42:00,31.0,28.0,30.18,West,278,9.0,13.0,90,0.00,,,-99.99,,2013-03-02 16:42:00,
2013-03-02 10:52:00,31.0,28.0,30.19,WNW,285,5.0,10.0,90,0.00,,,-99.99,,2013-03-02 16:52:00,
2013-03-02 11:01:00,31.0,27.0,30.19,West,265,7.0,17.0,86,0.00,,,-99.99,,2013-03-02 17:01:00,
2013-03-02 11:11:00,31.0,27.0,30.19,West,265,7.0,17.0,86,0.00,,,-99.99,,2013-03-02 17:11:00,
2013-03-02 11:21:00,32.0,27.0,30.19,WNW,291,9.0,13.0,81,0.01,,,-99.99,,2013-03-02 17:21:00,
2013-03-02 11:32:00,32.0,28.0,30.19,WNW,301,7.0,11.0,84,0.01,,,-99.99,,2013-03-02 17:32:00,
2013-03-02 11:42:00,32.0,28.0,30.19,WNW,301,7.0,11.0,84,0.01,,,-99.99,,2013-03-02 17:42:00,
2013-03-02 11:52:00,33.0,28.0,30.19,West,261,6.0,13.0,81,0.01,,,-99.99,,2013-03-02 17:52:00,
2013-03-02 12:02:00,33.0,27.0,30.18,WSW,258,7.0,14.0,77,0.02,,,-99.99,,2013-03-02 18:02:00,
2013-03-02 12:11:00,33.0,27.0,30.18,WSW,258,7.0,14.0,77,0.02,,,-99.99,,2013-03-02 18:11:00,
2013-03-02 12:22:00,33.0,27.0,30.18,West,267,5.0,14.0,79,0.01,,,-99.99,,2013-03-02 18:22:00,
2013-03-02 12:32:00,32.0,26.0,30.17,WSW,248,6.0,13.0,77,0.01,,,-99.99,,2013-03-02 18:32:00,
2013-03-02 12:42:00,32.0,26.0,30.17,WSW,248,6.0,13.0,77,0.01,,,-99.99,,2013-03-02 18:42:00,
2013-03-02 12:52:00,32.0,26.0,30.17,West,281,7.0,17.0,77,0.01,,,-99.99,,2013-03-02 18:52:00,
2013-03-02 13:01:00,33.0,27.0,30.17,WNW,302,6.0,10.0,78,0.00,,,-99.99,,2013-03-02 19:01:00,
2013-03-02 13:11:00,33.0,27.0,30.17,WNW,302,6.0,10.0,78,0.00,,,-99.99,,2013-03-02 19:11:00,
2013-03-02 13:21:00,33.0,26.0,30.16,WNW,294,9.0,16.0,75,0.00,,,-99.99,,2013-03-02 19:21:00,
2013-03-02 13:32:00,33.0,26.0,30.16,WSW,254,5.0,11.0,75,0.00,,,-99.99,,2013-03-02 19:32:00,
2013-03-02 13:42:00,33.0,26.0,30.16,WSW,254,5.0,11.0,75,0.00,,,-99.99,,2013-03-02 19:42:00,
2013-03-02 13:52:00,33.0,26.0,30.16,NW,309,5.0,10.0,75,0.00,,,-99.99,,2013-03-02 19:52:00,
2013-03-02 14:01:00,33.0,26.0,30.16,WNW,292,3.0,10.0,76,0.00,,,-99.99,,2013-03-02 20:01:00,
2013-03-02 14:11:00,33.0,26.0,30.16,WNW,292,3.0,10.0,76,0.00,,,-99.99,,2013-03-02 20:11:00,
2013-03-02 14:22:00,32.0,26.0,30.16,West,263,3.0,10.0,77,0.00,,,-99.99,,2013-03-02 20:22:00,
2013-03-02 14:32:00,33.0,26.0,30.16,West,277,5.0,8.0,76,0.00,,,-99.99,,2013-03-02 20:32:00,
2013-03-02 14:42:00,33.0,26.0,30.16,West,277,5.0,8.0,76,0.00,,,-99.99,,2013-03-02 20:42:00,
2013-03-02 14:52:00,33.0,26.0,30.16,WSW,254,3.0,8.0,76,0.00,,,-99.99,,2013-03-02 20:52:00,
2013-03-02 15:02:00,33.0,26.0,30.16,NW,320,6.0,10.0,76,0.00,,,-99.99,,2013-03-02 21:02:00,
2013-03-02 15:11:00,33.0,26.0,30.16,NW,320,6.0,10.0,76,0.00,,,-99.99,,2013-03-02 21:11:00,
2013-03-02 15:22:00,32.0,25.0,30.17,WNW,295,6.0,10.0,75,0.00,,,-99.99,,2013-03-02 21:22:00,
2013-03-02 15:32:00,33.0,26.0,30.17,West,278,5.0,11.0,75,0.00,,,-99.99,,2013-03-02 21:32:00,
2013-03-02 15:42:00,33.0,26.0,30.17,West,278,5.0,11.0,75,0.00,,,-99.99,,2013-03-02 21:42:00,
2013-03-02 15:52:00,33.0,26.0,30.17,West,275,6.0,10.0,75,0.00,,,-99.99,,2013-03-02 21:52:00,
2013-03-02 16:02:00,32.0,24.0,30.17,West,267,6.0,14.0,73,0.00,,,-99.99,,2013-03-02 22:02:00,
2013-03-02 16:11:00,32.0,24.0,30.17,West,267,6.0,14.0,73,0.00,,,-99.99,,2013-03-02 22:11:00,
2013-03-02 16:22:00,32.0,24.0,30.17,NW,305,4.0,11.0,73,0.00,,,-99.99,,2013-03-02 22:22:00,
2013-03-02 16:32:00,32.0,25.0,30.18,NW,306,4.0,13.0,76,0.00,,,-99.99,,2013-03-02 22:32:00,
2013-03-02 16:42:00,32.0,25.0,30.18,NW,306,4.0,13.0,76,0.00,,,-99.99,,2013-03-02 22:42:00,
2013-03-02 16:52:00,31.0,25.0,30.19,WNW,289,5.0,14.0,77,0.00,,,-99.99,,2013-03-02 22:52:00,
2013-03-02 17:01:00,31.0,25.0,30.19,West,277,2.0,7.0,78,0.00,,,-99.99,,2013-03-02 23:01:00,
2013-03-02 17:11:00,31.0,25.0,30.19,West,261,3.0,6.0,77,0.00,,,-99.99,,2013-03-02 23:11:00,
2013-03-02 17:21:00,31.0,25.0,30.19,West,261,3.0,6.0,77,0.00,,,-99.99,,2013-03-02 23:21:00,
2013-03-02 17:32:00,32.0,26.0,30.19,West,270,5.0,7.0,77,0.00,,,-99.99,,2013-03-02 23:32:00,
2013-03-02 17:42:00,32.0,26.0,30.19,West,270,5.0,7.0,77,0.00,,,-99.99,,2013-03-02 23:42:00,
2013-03-02 17:52:00,31.0,24.0,30.19,West,274,4.0,11.0,76,0.00,,,-99.99,,2013-03-02 23:52:00,
2013-03-02 18:02:00,31.0,24.0,30.19,West,280,4.0,12.0,75,0.00,,,-99.99,,2013-03-03 00:02:00,
2013-03-02 18:11:00,31.0,24.0,30.19,West,280,4.0,12.0,75,0.00,,,-99.99,,2013-03-03 00:11:00,
2013-03-02 18:22:00,31.0,25.0,30.20,West,270,5.0,7.0,77,0.00,,,-99.99,,2013-03-03 00:22:00,
2013-03-02 18:32:00,31.0,24.0,30.20,NW,319,2.0,7.0,76,0.00,,,-99.99,,2013-03-03 00:32:00,
2013-03-02 18:42:00,31.0,24.0,30.20,NW,319,2.0,7.0,76,0.00,,,-99.99,,2013-03-03 00:42:00,
2013-03-02 18:52:00,31.0,24.0,30.20,WNW,292,2.0,8.0,76,0.00,,,-99.99,,2013-03-03 00:52:00,
2013-03-02 19:01:00,30.0,23.0,30.21,WNW,292,2.0,4.0,76,0.00,,,-99.99,,2013-03-03 01:01:00,
2013-03-02 19:11:00,30.0,23.0,30.21,WNW,292,2.0,4.0,76,0.00,,,-99.99,,2013-03-03 01:11:00,
2013-03-02 19:21:00,30.0,24.0,30.21,WNW,291,1.0,3.0,77,0.00,,,-99.99,,2013-03-03 01:21:00,
2013-03-02 19:31:00,30.0,24.0,30.21,NW,306,1.0,3.0,77,0.00,,,-99.99,,2013-03-03 01:31:00,
2013-03-02 19:42:00,30.0,24.0,30.21,NW,306,1.0,3.0,77,0.00,,,-99.99,,2013-03-03 01:42:00,
2013-03-02 19:52:00,30.0,24.0,30.21,NW,306,2.0,3.0,77,0.00,,,-99.99,,2013-03-03 01:52:00,
2013-03-02 20:01:00,30.0,24.0,30.21,WNW,299,2.0,5.0,77,0.00,,,-99.99,,2013-03-03 02:01:00,
2013-03-02 20:11:00,30.0,24.0,30.21,WNW,299,2.0,5.0,77,0.00,,,-99.99,,2013-03-03 02:11:00,
2013-03-02 20:21:00,30.0,24.0,30.21,West,267,2.0,6.0,78,0.00,,,-99.99,,2013-03-03 02:21:00,
2013-03-02 20:31:00,30.0,24.0,30.22,WSW,256,4.0,7.0,78,0.00,,,-99.99,,2013-03-03 02:31:00,
2013-03-02 20:41:00,30.0,24.0,30.22,WSW,256,4.0,7.0,78,0.00,,,-99.99,,2013-03-03 02:41:00,
2013-03-02 20:52:00,30.0,24.0,30.22,NW,318,2.0,6.0,78,0.00,,,-99.99,,2013-03-03 02:52:00,
2013-03-02 21:01:00,30.0,24.0,30.22,West,275,2.0,4.0,78,0.00,,,-99.99,,2013-03-03 03:01:00,
2013-03-02 21:11:00,30.0,24.0,30.22,West,275,2.0,4.0,78,0.00,,,-99.99,,2013-03-03 03:11:00,
2013-03-02 21:21:00,30.0,24.0,30.22,WNW,288,2.0,6.0,79,0.00,,,-99.99,,2013-03-03 03:21:00,
2013-03-02 21:31:00,30.0,24.0,30.22,West,261,3.0,5.0,79,0.00,,,-99.99,,2013-03-03 03:31:00,
2013-03-02 21:41:00,30.0,24.0,30.22,West,261,3.0,5.0,79,0.00,,,-99.99,,2013-03-03 03:41:00,
2013-03-02 21:52:00,30.0,24.0,30.22,West,261,3.0,5.0,78,0.00,,,-99.99,,2013-03-03 03:52:00,
2013-03-02 22:01:00,30.0,24.0,30.22,West,261,2.0,3.0,79,0.00,,,-99.99,,2013-03-03 04:01:00,
2013-03-02 22:11:00,30.0,24.0,30.22,West,261,2.0,3.0,79,0.00,,,-99.99,,2013-03-03 04:11:00,
2013-03-02 22:21:00,30.0,25.0,30.22,WSW,237,2.0,3.0,81,0.00,,,-99.99,,2013-03-03 04:21:00,
2013-03-02 22:31:00,30.0,25.0,30.21,WSW,243,4.0,6.0,81,0.00,,,-99.99,,2013-03-03 04:31:00,
2013-03-02 22:42:00,30.0,25.0,30.21,WSW,243,4.0,6.0,81,0.00,,,-99.99,,2013-03-03 04:42:00,
2013-03-02 22:52:00,30.0,25.0,30.21,West,277,2.0,6.0,81,0.00,,,-99.99,,2013-03-03 04:52:00,
2013-03-02 23:02:00,30.0,25.0,30.21,West,277,1.0,5.0,81,0.00,,,-99.99,,2013-03-03 05:02:00,
2013-03-02 23:11:00,30.0,25.0,30.21,West,277,1.0,5.0,81,0.00,,,-99.99,,2013-03-03 05:11:00,
2013-03-02 23:22:00,30.0,24.0,30.21,West,261,2.0,6.0,79,0.00,,,-99.99,,2013-03-03 05:22:00,
2013-03-02 23:32:00,30.0,24.0,30.22,West,264,4.0,7.0,77,0.00,,,-99.99,,2013-03-03 05:32:00,
2013-03-02 23:42:00,30.0,24.0,30.22,West,264,4.0,7.0,77,0.00,,,-99.99,,2013-03-03 05:42:00,
2013-03-02 23:52:00,29.0,23.0,30.22,West,271,2.0,3.0,78,0.00,,,-99.99,,2013-03-03 05:52:00,